www.pogodaiklimat.ru

Погода и климат >> Архив погоды >> Италия >> Отранто


ПОГОДА в Отранто

  • Прогноз погоды в Отранто
  • Монитор погоды в Отранто

АРХИВ ПОГОДЫ в Отранто

Время (UTC), дата Ветер
(напр.,м/с)
 
Видим.   Явления Облачность Т
(С)
Тd
(С)
f
(%)
Тe
(С)
Тes
(С)
Комфортность P
(гПа)
Po
(гПа)
Тmin
(С)
Tmax
(С)
R
(мм)
R24
(мм)
S
(см)
22 16.01 ЮЗ 3 н/о н/о +8.8 +6.6 86 +7 +7 1023.2 1012.7
23 16.01 ЮЗ 2 н/о н/о +8.3 +5.9 85 +6 +6 1022.9 1012.4
00 17.01 Ю 2 н/о н/о +7.8 +5.4 85 +6 +6 1022.6 1012.1
02 17.01 Ю 2 н/о н/о +8.2 +6.3 88 +6 +6 1022.2 1011.7
01 17.01 ЮЗ 2 н/о н/о +8.1 +5.7 85 +7 +7 1022.3 1011.8
03 17.01 Ю 2 н/о н/о +9.2 +7.8 91 +8 +8 1021.7 1011.3
04 17.01 Ю 1 н/о н/о +9.3 +8.1 92 +9 +9 1021.2 1010.8
05 17.01 Ю 1 н/о н/о +8.9 +7.7 92 +8 +8 1021.1 1010.7
06 17.01 ЮВ 1 н/о н/о +8.3 +6.9 91 +8 +8 1021.3 1010.8 +7.6 401
08 17.01 ЮВ 1 н/о н/о +12.4 +11.6 95 +12 +12 1020.9 1010.6
07 17.01 ЮВ 1 н/о н/о +8.7 +8.4 98 +8 +8 1020.9 1010.5
09 17.01 Ю 4 н/о н/о +13.7 +12.1 90 +12 +12 1021.2 1010.9
10 17.01 Ю 4 н/о н/о +14.6 +12.9 90 +13 +13 1020.8 1010.6
11 17.01 Ю 5 н/о н/о +14.3 +12.5 89 +13 +13 1020.1 1009.9
12 17.01 Ю 5 н/о н/о +14.3 +12.7 90 +13 +13 1019.4 1009.2
14 17.01 Ю 4 н/о н/о +14.2 +13.5 96 +13 +13 1018.8 1008.6
13 17.01 Ю 5 н/о н/о +14.5 +13.0 91 +13 +13 1019.0 1008.8
15 17.01 Ю 4 н/о н/о +13.7 +12.7 94 +12 +12 1018.6 1008.4 +91.1
16 17.01 Ю 3 н/о н/о +11.6 +10.8 95 +10 +10 1018.6 1008.3
17 17.01 Ю 3 н/о н/о +11.0 +10.2 95 +9 +9 1018.7 1008.4
18 17.01 Ю 4 н/о н/о +9.8 +9.0 95 +7 +7 1018.8 1008.4 +14.9
20 17.01 Ю 3 н/о н/о +9.8 +9.8 100 +7 +7 1018.7 1008.3
19 17.01 Ю 4 н/о н/о +10.5 +10.5 100 +8 +8 1018.7 1008.3
21 17.01 Ю 3 н/о н/о +10.4 +10.4 100 +8 +8 1018.5 1008.1 +93.0
22 17.01 Ю 3 н/о н/о +10.9 +10.9 100 +9 +9 1018.4 1008.1
23 17.01 Ю 3 н/о н/о +10.8 +10.8 100 +9 +9 1018.0 1007.7
00 18.01 Ю 3 н/о н/о +10.9 +10.9 100 +9 +9 1017.5 1007.2
02 18.01 ЮЗ 3 н/о н/о +11.0 +11.0 100 +9 +9 1017.2 1006.9
01 18.01 Ю 3 н/о н/о +11.2 +11.2 100 +9 +9 1017.4 1007.1
03 18.01 Ю 3 н/о н/о +12.0 +12.0 100 +10 +10 1016.4 1006.1 0.0
04 18.01 Ю 3 н/о н/о +12.1 +12.1 100 +11 +11 1015.8 1005.5
05 18.01 Ю 5 н/о н/о +12.3 +12.3 100 +10 +10 1015.7 1005.4
06 18.01 Ю 5 н/о н/о +12.2 +12.2 100 +10 +10 1015.6 1005.3 +9.5 0.2
08 18.01 Ю 5 н/о н/о +12.0 +12.0 100 +9 +9 1016.0 1005.7
07 18.01 Ю 6 н/о н/о +11.9 +11.9 100 +9 +9 1015.6 1005.3
09 18.01 Ю 4 н/о н/о +13.2 +13.1 99 +11 +11 1016.2 1006.0
10 18.01 Ю 4 н/о н/о +14.4 +14.3 99 +13 +13 1016.2 1006.0
11 18.01 Ю 6 н/о н/о +15.3 +15.2 99 +14 +14 1015.5 1005.4
12 18.01 Ю 5 н/о н/о +14.8 +13.8 94 +13 +13 1015.0 1004.8
14 18.01 Ю 4 н/о н/о +14.4 +14.3 99 +13 +13 1014.8 1004.6
13 18.01 Ю 5 н/о н/о +15.1 +14.1 94 +14 +14 1014.7 1004.6
15 18.01 Ю 4 н/о н/о +14.0 +13.9 99 +12 +12 1015.0 1004.8
16 18.01 ЮЗ 3 н/о н/о +13.1 +13.0 99 +12 +12 1015.2 1005.0
17 18.01 Ю 4 н/о н/о +12.4 +12.4 100 +10 +10 1015.2 1004.9
18 18.01 Ю 3 н/о н/о +11.7 +11.7 100 +10 +10 1015.3 1005.0 +15.8
20 18.01 Ю 3 н/о н/о +11.3 +11.3 100 +10 +10 1015.4 1005.1
19 18.01 Ю 3 н/о н/о +11.6 +11.6 100 +10 +10 1015.3 1005.0
21 18.01 ЮЗ 3 н/о н/о +12.0 +12.0 100 +10 +10 1015.6 1005.3
22 18.01 Ю 2 н/о н/о +11.9 +11.9 100 +11 +11 1015.7 1005.4
23 18.01 Ю 2 н/о н/о +11.4 +11.4 100 +10 +10 1015.5 1005.2
00 19.01 Ю 3 н/о н/о +11.5 +11.5 100 +10 +10 1015.3 1005.0 4
02 19.01 Ю 2 н/о н/о +11.5 +11.5 100 +10 +10 1014.9 1004.6
01 19.01 Ю 2 н/о н/о +11.7 +11.7 100 +10 +10 1015.2 1004.9
03 19.01 ЮЗ 2 н/о н/о +11.3 +11.3 100 +10 +10 1014.7 1004.4
04 19.01 Ю 2 н/о н/о +11.3 +11.3 100 +10 +10 1014.1 1003.8
05 19.01 ЮЗ 3 н/о н/о +11.5 +11.5 100 +9 +9 1014.1 1003.8
06 19.01 Ю 3 н/о н/о +11.4 +11.4 100 +10 +10 1014.3 1004.0 +10.8 4 5
08 19.01 Ю 2 н/о н/о +12.5 +12.5 100 +11 +11 1014.8 1004.6
07 19.01 Ю 3 н/о н/о +11.5 +11.5 100 +10 +10 1014.5 1004.2
09 19.01 Ю 3 н/о н/о +13.2 +13.1 99 +12 +12 1015.1 1004.9
10 19.01 Ю 4 н/о н/о +11.3 +11.3 100 +9 +9 1015.3 1005.0
11 19.01 ЮЗ 3 н/о н/о +11.3 +11.3 100 +10 +10 1014.6 1004.3
12 19.01 ЮВ 2 н/о н/о +12.5 +12.5 100 +11 +11 1013.9 1003.7 0.6
14 19.01 ЮВ 4 н/о н/о +11.9 +11.9 100 +10 +10 1013.6 1003.3
13 19.01 ЮВ 2 н/о н/о +12.4 +12.4 100 +12 +12 1013.6 1003.4
15 19.01 ЮВ 3 н/о н/о +11.5 +11.5 100 +10 +10 1013.5 1003.2
16 19.01 ЮВ 4 н/о н/о +12.1 +12.1 100 +10 +10 1012.6 1002.4
17 19.01 Ю 6 н/о н/о +12.4 +12.4 100 +10 +10 1012.9 1002.7
18 19.01 ЮВ 5 н/о н/о +12.4 +12.4 100 +10 +10 1013.1 1002.9 +13.3 0.6
20 19.01 ЮВ 5 н/о н/о +12.2 +12.2 100 +10 +10 1013.1 1002.9
19 19.01 ЮВ 5 н/о н/о +12.4 +12.4 100 +10 +10 1013.0 1002.8
21 19.01 ЮВ 4 н/о н/о +11.9 +11.9 100 +10 +10 1013.2 1003.0
22 19.01 Ю 4 н/о н/о +12.0 +12.0 100 +10 +10 1013.4 1003.1
23 19.01 Ю 1 н/о н/о +10.9 +10.9 100 +11 +11 1013.4 1003.1
00 20.01 СВ 1 н/о н/о +10.6 +10.6 100 +11 +11 1012.9 1002.6 2
02 20.01 В 1 н/о н/о +10.2 +10.2 100 +10 +10 1013.1 1002.8
01 20.01 В 1 н/о н/о +10.9 +10.9 100 +10 +10 1013.1 1002.8
03 20.01 штиль 0 н/о н/о +9.1 +9.1 100 +8 +8 1013.0 1002.7
04 20.01 СЗ 1 н/о н/о +8.6 +8.6 100 +9 +9 1013.1 1002.7
05 20.01 СЗ 1 н/о н/о +9.2 +9.2 100 +8 +8 1013.3 1002.9
06 20.01 СЗ 2 н/о н/о +8.3 +8.3 100 +7 +7 1013.6 1003.2 +8.2 2 303
08 20.01 С 1 н/о н/о +10.0 +10.0 100 +10 +10 1014.2 1003.9
07 20.01 СЗ 1 н/о н/о +8.6 +8.6 100 +8 +8 1013.9 1003.5
09 20.01 ЮЗ 1 н/о н/о +12.7 +12.7 100 +13 +13 1014.7 1004.5
10 20.01 ЮВ 1 н/о н/о +14.0 +13.9 99 +14 +14 1014.6 1004.4
11 20.01 СВ 2 н/о н/о +13.1 +13.0 99 +13 +13 1014.4 1004.2
12 20.01 СВ 2 н/о н/о +12.9 +12.8 99 +12 +12 1013.8 1003.6
14 20.01 СВ 2 н/о н/о +12.7 +12.7 100 +12 +12 1013.6 1003.4
13 20.01 СВ 3 н/о н/о +12.8 +12.8 100 +11 +11 1013.4 1003.2
15 20.01 В 1 н/о н/о +12.7 +12.7 100 +13 +13 1013.5 1003.3
16 20.01 СЗ 1 н/о н/о +11.8 +11.8 100 +12 +12 1013.6 1003.3
17 20.01 С 1 н/о н/о +11.3 +11.3 100 +11 +11 1013.7 1003.4
18 20.01 С 1 н/о н/о +10.4 +10.4 100 +10 +10 1013.8 1003.5 +15.2
20 20.01 СЗ 1 н/о н/о +9.6 +9.6 100 +10 +10 1014.3 1004.0
19 20.01 СЗ 1 н/о н/о +9.7 +9.7 100 +9 +9 1014.0 1003.7
21 20.01 штиль 0 н/о н/о +9.9 +9.9 100 +9 +9 1014.4 1004.1
22 20.01 штиль 0 н/о н/о +10.0 +10.0 100 +9 +9 1014.7 1004.4
23 20.01 СЗ 1 н/о н/о +10.2 +10.2 100 +10 +10 1014.8 1004.5
00 21.01 штиль 0 н/о н/о +9.9 +9.9 100 +9 +9 1014.2 1003.9
02 21.01 штиль 0 н/о н/о +9.7 +9.7 100 +9 +9 1014.2 1003.9
01 21.01 штиль 0 н/о н/о +10.0 +10.0 100 +9 +9 1014.4 1004.1
03 21.01 С 1 н/о н/о +9.8 +9.8 100 +10 +10 1014.1 1003.8
04 21.01 В 1 н/о н/о +10.2 +10.2 100 +10 +10 1013.8 1003.5
05 21.01 Ю 3 н/о н/о +9.3 +9.3 100 +7 +7 1014.1 1003.7
06 21.01 Ю 1 н/о н/о +9.4 +9.4 100 +9 +9 1014.0 1003.7 +9.0
08 21.01 В 2 н/о н/о +12.9 +12.8 99 +12 +12 1014.3 1004.1
07 21.01 ЮВ 1 н/о н/о +9.7 +9.7 100 +10 +10 1014.1 1003.8
09 21.01 ЮВ 3 н/о н/о +13.5 +13.4 99 +12 +12 1014.5 1004.3
10 21.01 ЮВ 3 н/о н/о +14.5 +13.5 94 +14 +14 1014.5 1004.3
11 21.01 ЮВ 3 н/о н/о +15.2 +15.1 99 +14 +14 1013.7 1003.6
12 21.01 ЮВ 3 н/о н/о +14.9 +13.9 94 +14 +14 1013.3 1003.1
14 21.01 Ю 4 н/о н/о +14.0 +13.9 99 +12 +12 1012.8 1002.6
13 21.01 Ю 5 н/о н/о +14.4 +13.4 94 +13 +13 1012.8 1002.6
15 21.01 Ю 3 н/о н/о +13.2 +13.1 99 +12 +12 1012.7 1002.5
16 21.01 Ю 2 н/о н/о +12.3 +12.3 100 +12 +12 1012.6 1002.4
17 21.01 Ю 3 н/о н/о +12.1 +12.1 100 +10 +10 1012.5 1002.3
18 21.01 Ю 4 н/о н/о +12.3 +12.3 100 +10 +10 1012.4 1002.2 +15.5
20 21.01 Ю 4 н/о н/о +12.1 +12.1 100 +10 +10 1012.4 1002.2
19 21.01 Ю 4 н/о н/о +12.1 +12.1 100 +10 +10 1012.5 1002.3
21 21.01 Ю 5 н/о н/о +12.4 +12.4 100 +10 +10 1012.4 1002.2
22 21.01 Ю 6 н/о н/о +11.9 +11.9 100 +9 +9 1012.3 1002.1
23 21.01 Ю 6 н/о н/о +11.7 +11.7 100 +9 +9 1012.3 1002.0
00 22.01 Ю 5 н/о н/о +11.6 +11.6 100 +9 +9 1011.5 1001.3
02 22.01 ЮВ 8 н/о н/о +11.4 +11.4 100 +8 +8 1010.5 1000.3
01 22.01 Ю 7 н/о н/о +12.1 +12.1 100 +9 +9 1010.8 1000.6
03 22.01 Ю 8 н/о н/о +10.8 +10.8 100 +7 +7 1009.4 999.2
04 22.01 Ю 6 н/о н/о +11.0 +11.0 100 +8 +8 1009.0 998.8
05 22.01 Ю 7 н/о н/о +11.1 +11.1 100 +8 +8 1008.4 998.2
06 22.01 Ю 6 н/о н/о +11.4 +11.4 100 +8 +8 1008.1 997.9 +10.6 4
08 22.01 Ю 7 н/о н/о +11.6 +11.6 100 +8 +8 1006.8 996.6
07 22.01 ЮВ 5 н/о н/о +11.4 +11.4 100 +8 +8 1007.7 997.5
09 22.01 Ю 6 н/о н/о +11.0 +11.0 100 +8 +8 1006.7 996.5
10 22.01 Ю 6 н/о н/о +11.0 +11.0 100 +8 +8 1006.4 996.2
11 22.01 Ю 7 н/о н/о +11.9 +11.9 100 +9 +9 1005.9 995.7
12 22.01 Ю 6 н/о н/о +12.6 +12.6 100 +10 +10 1005.1 995.0 2
14 22.01 Ю 4 н/о н/о +13.0 +12.9 99 +11 +11 1003.9 993.8
13 22.01 Ю 5 н/о н/о +13.0 +12.9 99 +11 +11 1004.4 994.3
15 22.01 ЮЗ 5 н/о н/о +13.5 +13.4 99 +11 +11 1003.7 993.6
16 22.01 ЮЗ 1 н/о н/о +10.9 +10.9 100 +10 +10 1003.6 993.4
17 22.01 ЮЗ 3 н/о н/о +10.7 +10.7 100 +9 +9 1003.6 993.4
18 22.01 Ю 3 н/о н/о +10.4 +10.4 100 +8 +8 1004.2 994.0 +13.6 2
20 22.01 ЮЗ 3 н/о н/о +10.8 +10.8 100 +9 +9 1005.0 994.8
19 22.01 З 3 н/о н/о +10.8 +10.8 100 +9 +9 1004.6 994.4
21 22.01 З 3 н/о н/о +10.3 +9.5 95 +8 +8 1004.7 994.5
22 22.01 З 2 н/о н/о +9.6 +8.8 95 +8 +8 1005.1 994.8
23 22.01 Ю 2 н/о н/о +9.8 +9.0 95 +8 +8 1004.8 994.6
00 23.01 Ю 2 н/о н/о +10.1 +9.3 95 +9 +9 1004.5 994.3
02 23.01 штиль 0 н/о н/о +10.0 +9.2 95 +9 +9 1003.4 993.2
01 23.01 ЮВ 1 н/о н/о +10.5 +9.7 95 +11 +11 1004.0 993.8
03 23.01 СЗ 1 н/о н/о +9.5 +8.7 95 +9 +9 1002.8 992.6
04 23.01 штиль 0 н/о н/о +9.7 +8.9 95 +9 +9 1002.3 992.1
05 23.01 штиль 0 н/о н/о +9.3 +8.5 95 +8 +8 1001.9 991.7
06 23.01 В 1 н/о н/о +10.0 +10.0 100 +9 +9 1001.8 991.6 +8.7 202
08 23.01 С 2 н/о н/о +10.9 +10.9 100 +10 +10 1001.1 990.9
07 23.01 СВ 1 н/о н/о +10.3 +9.5 95 +10 +10 1001.7 991.5
09 23.01 СВ 1 н/о н/о +11.7 +11.7 100 +11 +11 1000.7 990.6
10 23.01 С 2 н/о н/о +12.1 +11.3 95 +11 +11 999.9 989.8
11 23.01 ЮВ 2 н/о н/о +10.0 +9.2 95 +8 +8 998.8 988.6
12 23.01 ЮЗ 1 н/о н/о +9.5 +9.5 100 +9 +9 997.6 987.4 1
14 23.01 ЮВ 3 н/о н/о +9.6 +9.6 100 +7 +7 995.7 985.5
13 23.01 В 2 н/о н/о +9.4 +9.4 100 +8 +8 996.2 986.0
15 23.01 СВ 4 н/о н/о +9.1 +9.1 100 +6 +6 994.1 983.9
16 23.01 СВ 3 н/о н/о +9.6 +9.6 100 +7 +7 993.9 983.8
17 23.01 В 4 н/о н/о +9.4 +9.4 100 +6 +6 993.9 983.8
18 23.01 СВ 3 н/о н/о +9.2 +9.2 100 +7 +7 993.8 983.7 +12.4 4
20 23.01 СЗ 3 н/о н/о +8.0 +8.0 100 +5 +5 993.6 983.4
19 23.01 СЗ 3 н/о н/о +9.0 +9.0 100 +7 +7 994.0 983.8
21 23.01 СЗ 3 н/о н/о +7.9 +7.9 100 +5 +5 993.8 983.6
22 23.01 З 2 н/о н/о +7.7 +7.7 100 +6 +6 994.2 984.0

 

Местоположение метеостанции Отранто (Италия): широта 40.10 долгота 18.48 высота над уровнем моря 79 м.

В архиве по умолчанию представлена погода в Отранто за последнюю неделю. Архивные данные за месяц целиком и за предыдущие месяцы, начиная с января 2011 года, Вы можете получить, выбрав интересующий диапазон дат из раскрывающегося списка и нажав кнопку "Ввод!".


*Определитесь, кто Вы:
робот инопланетянин человек

Внимание! Время в таблицах - всемирное. Для получения местного времени необходимо прибавить поправку, которая равна 1 ч.

Смотрите также архив погоды в соседних городах и на ближайших метеорологических станциях:

Погода в Лечче (Италия) (32 км)
Погода в Санта-Мария-ди-Леуке (Италия) (33 км)
Погода в Бриндиси (Италия) (76 км)
Погода на Сазани (Албания) (81 км)
Погода во Влёре (Албания) (94 км)
Погода в Мартина-Франка (Италия) (122 км)
Погода в Саранде (Албания) (132 км)
Погода в Керкире (Греция) (134 км)
Погода в Пунто Алисе (Италия) (136 км)
Погода в Джинозе (Италия) (141 км)

Пояснения к столбцам:

Ветер - указаны скорость ветра в м/с - средняя за 10 мин, порывы в срок и между сроками (в фигурных скобках) и направление, откуда дует ветер: С - северный, СВ - северо-восточный, В - восточный, ЮВ - юго-восточный, Ю - южный, ЮЗ - юго-западный, З - западный, СЗ - северо-западный.
Видимость - горизонтальная дальность видимости в метрах или километрах. При видимости от 1 до 10 км при отсутствии осадков обычно наблюдается дымка, при ухудшении видимости до 1 км и менее - туман. В сухую погоду видимость может ухудшаться дымом, пылью или мглою.
Явления - указаны атмосферные явления, наблюдавшиеся в срок или в последний час перед сроком; фигурными скобками обозначены явления, наблюдавшиеся между сроками (за 1-3 часа до срока); квадратными скобками обозначены град или гололедные отложения с указанием их диаметра в мм.
Облачность - указаны через наклонную черту общая и нижняя облачность в баллах и высота нижней границы облаков в метрах; квадратными скобками обозначены формы облаков: Ci - перистые, Cs - перисто-слоистые, Cc - перисто-кучевые, Ac - высококучевые, As - высокослоистые, Sc - слоисто-кучевые, Ns - слоисто-дождевые, Cu - кучевые, Cb - кучево-дождевые. Подробнее классификацию облаков см. в Атласе облаков (PDF).
T - Температура воздуха - температура, измеренная на высоте 2 м над землей.
Td - Температура точки росы - температура, при понижении до которой содержащийся в воздухе водяной пар достигнет насыщения.
f - Относительная влажность воздуха - влажноcть воздуха, измеренная на высоте 2 м над землей.
Te - Эффективная температура - температура, которую ощущает одетый по сезону человек в тени. Характеристика душности погоды. При расчете учитывается влияние влажности воздуха и скорости ветра на теплоощущения человека.
Tes - Эффективная температура на солнце - температура, которую ощущает человек, с поправкой на солнечный нагрев. Характеристика знойности погоды. Зависит от высоты солнца над горизонтом, облачности и скорости ветра. Ночью, в пасмурную погоду, а также при ветре 12 м/с и более поправка равна нулю.
P - Атмосферное давление - приведенное к уровню моря атмосферное давление.
Po - Атмосферное давление - измеренное на уровне метеостанции атмосферное давление.
Tmin - Минимальная температура - минимум температуры воздуха на высоте 2 м над землей.
Tmax - Максимальная температура - максимум температуры воздуха на высоте 2 м над землей.
R - Количество осадков - Количество выпавших осадков за период времени, мм. При наведении курсора мыши на число - период времени, за который выпало указанное количество осадков.
R24 - Количество осадков - Количество выпавших осадков за 24 часа, мм.
S - Снежный покров - Высота снежного покрова, см. При наведении курсора мыши на число - состояние снежного покрова и степень покрытия местности в баллах.